星链-33810 (STARLINK-33810)

导读 | 豆包AI

STARLINK-33810是美国太空探索技术公司(SpaceX)于2025年4月25日通过猎鹰9号火箭发射的星链(Starlink)第二代卫星,属于SpaceX全球低轨互联网星座的扩容卫星。该卫星运行在近地轨道,配备增强型相控阵天线与激光星间链路,单星容量超100Gbps,可为全球提供高速低时延宽带服务,同时支持军事通信与应急应用,服役后进一步完善了星链星座的全球覆盖能力。

基本信息
目录编号:
63660
目录名称:
STARLINK-33810
国际标识:
2025-083AC
轨道中心:
EARTH
卫星名称:
星链-33810
卫星全名:
星链-33810 (STARLINK-33810)
卫星状态:
在轨 (已飞行369 天)
发射日期:
2025-04-25 UTC
国别 :
美国 (US)
星等 :
--
轨道信息
数据来源 国际轨道数据
星历时间: 2026-04-29T22:03:46+0800
6小时前
查看轨道信息
半长轴: 6861.158km
偏心率: 0.0001876
轨道倾角: 43.000°
近地点辐角 265.558°
升交点赤经 77.522°
平近点角 94.506°
近地点: 481.733km
远地点: 484.309km
周期: 94.266分钟
每日圈数: 15.275895
详细信息
固有亮度:
5
最大亮度:
2.5
卫星平台:
Starlink V1.0
覆盖范围:
全球
运营商:
太空探索技术公司
运营商所在国:
美国
制造商(研发单位):
太空探索技术公司
制造商所在国:
美国
使用方式:
暂无
卫星简介
Starlink 计划是 SpaceX 推出的全球卫星互联网项目,通过发射低轨道卫星,为全球尤其是偏远地区提供高速、低延迟的互联网服务。自 2019 年起,Starlink 已部署数千颗卫星,旨在缩小全球数字鸿沟,推动互联网普及。该项目还为军事、航空等行业提供通信支持,带来广泛经济效益。
2D轨道图
3D轨道图
轨道高度分析图
轨道倾角分析图
轨道综合分析图
查看轨道综合分析图